Location: Colonia Mina de C?rbuni
(46.1667°N, 22.7167°E)
Time: 12:39:20
(UTC+00:00)

Vanguard 2 - Pass Details

Date: 17 April 2024
Orbit: 552 x 2901 km, 32.9° (Epoch: 12 May)

Event Time Altitude Azimuth Distance (km) Brightness Sun altitude
Rises 00:27:57 0° 220° (SW) 6,139 - -27.3°
Reaches altitude 10° 00:32:12 10° 212° (SSW) 5,362 - -26.9°
Exits shadow 00:40:09 29° 188° (S) 4,255 10.8 -26.1°
Maximum altitude 00:46:38 37° 154° (SSE) 3,932 10.8 -25.4°
Drops below altitude 10° 01:01:10 10° 95° (E) 5,418 12.3 -23.8°
Sets 01:05:27 0° 88° (E) 6,210 12.8 -23.3°
